Location: Killam
(52.7910°N, 111.8608°W)
Time: 10:53:00
(UTC+00:00)

SR - Pass Details

Date: 21 February 2026
Orbit: 573 x 848 km, 66.7° (Epoch: 7 March)

Event Time Altitude Azimuth Distance (km) Brightness Sun altitude
Exits shadow 11:51:53 81° 55° (NE) 622 ? -24.7°
Drops below altitude 10° 11:56:15 10° 40° (NE) 2,036 ? -24.0°
Sets 11:58:37 0° 40° (NE) 2,992 ? -23.7°
